International Skating Union - Official Site

Essent ISU World Cup Salt lake City
November 15-17, 2013

Draw | Lap Times | Index | World Cup

Referee: Dan  IMMERFALL  (USA)
Starter: Bruce  LANSER  (USA)
StartTime: EndTime: Air Temp: Ice Temp: Humidity:
15:16 15:59 18℃ -7.8℃ 28.7
Result 3000m Ladies Division A
Rankings as of Nov 16 2013 4:58PM
Rank: No.: Name: Nation: Time: Behind: Points:
1 230 Martina  Sábliková CZE CZE 3:57.79200m - 20.43 - (20.4)
600m - 51.04 - (30.6)
1000m - 1:21.94 - (30.9)
1400m - 1:52.87 - (30.9)
1800m - 2:23.85 - (30.9)
2200m - 2:55.02 - (31.1)
2600m - 3:26.60 - (31.5)
3000m - 3:57.79 - (31.1)
100
2 242 Claudia  Pechstein GER GER 3:57.80200m - 20.41 - (20.4)
600m - 51.30 - (30.8)
1000m - 1:22.03 - (30.7)
1400m - 1:52.95 - (30.9)
1800m - 2:23.92 - (30.9)
2200m - 2:55.29 - (31.3)
2600m - 3:26.70 - (31.4)
3000m - 3:57.80 - (31.1)
0.01 80
3 282 Antoinette  de Jong NED NED 3:59.49200m - 19.60 - (19.6)
600m - 49.83 - (30.2)
1000m - 1:20.13 - (30.3)
1400m - 1:51.58 - (31.4)
1800m - 2:23.32 - (31.7)
2200m - 2:55.37 - (32.0)
2600m - 3:27.17 - (31.8)
3000m - 3:59.49 - (32.3)
1.70 70
4 292 Jorien  Voorhuis NED NED 3:59.51200m - 19.61 - (19.6)
600m - 49.80 - (30.1)
1000m - 1:20.93 - (31.1)
1400m - 1:52.40 - (31.4)
1800m - 2:23.91 - (31.5)
2200m - 2:55.38 - (31.4)
2600m - 3:27.22 - (31.8)
3000m - 3:59.51 - (32.2)
1.72 60
5 283 Linda  de Vries NED NED 4:01.00200m - 19.61 - (19.6)
600m - 50.56 - (30.9)
1000m - 1:21.34 - (30.7)
1400m - 1:51.99 - (30.6)
1800m - 2:22.87 - (30.8)
2200m - 2:54.40 - (31.5)
2600m - 3:27.26 - (32.8)
3000m - 4:01.00 - (33.7)
3.21 50
6 297 Ida  Njåtun NOR NOR 4:01.47200m - 19.80 - (19.8)
600m - 50.27 - (30.4)
1000m - 1:21.49 - (31.2)
1400m - 1:52.76 - (31.2)
1800m - 2:24.38 - (31.6)
2200m - 2:56.30 - (31.9)
2600m - 3:28.58 - (32.2)
3000m - 4:01.47 - (32.8)
3.68 45
7 298 Katarzyna  Bachleda-Curus POL POL 4:02.12200m - 19.82 - (19.8)
600m - 50.54 - (30.7)
1000m - 1:21.98 - (31.4)
1400m - 1:53.96 - (31.9)
1800m - 2:25.56 - (31.6)
2200m - 2:57.28 - (31.7)
2600m - 3:29.39 - (32.1)
3000m - 4:02.12 - (32.7)
4.33 40
8 251 Masako  Hozumi JPN JPN 4:02.34200m - 20.54 - (20.5)
600m - 51.15 - (30.6)
1000m - 1:22.43 - (31.2)
1400m - 1:53.80 - (31.3)
1800m - 2:25.40 - (31.6)
2200m - 2:57.32 - (31.9)
2600m - 3:29.74 - (32.4)
3000m - 4:02.34 - (32.6)
4.55 35
9 301 Luiza  Zlotkowska POL POL 4:02.37200m - 19.91 - (19.9)
600m - 51.08 - (31.1)
1000m - 1:23.49 - (32.4)
1400m - 1:55.13 - (31.6)
1800m - 2:26.94 - (31.8)
2200m - 2:58.49 - (31.5)
2600m - 3:30.40 - (31.9)
3000m - 4:02.37 - (31.9)
4.58 30
10 252 Shiho  Ishizawa JPN JPN 4:03.00200m - 20.35 - (20.3)
600m - 51.40 - (31.0)
1000m - 1:23.09 - (31.6)
1400m - 1:54.84 - (31.7)
1800m - 2:26.71 - (31.8)
2200m - 2:58.57 - (31.8)
2600m - 3:30.73 - (32.1)
3000m - 4:03.00 - (32.2)
5.21 25
11 287 Yvonne  Nauta NED NED 4:03.50200m - 19.82 - (19.8)
600m - 50.48 - (30.6)
1000m - 1:21.74 - (31.2)
1400m - 1:53.20 - (31.4)
1800m - 2:24.76 - (31.5)
2200m - 2:56.79 - (32.0)
2600m - 3:29.55 - (32.7)
3000m - 4:03.50 - (33.9)
5.71 21
12 307 Olga  Graf RUS RUS 4:04.29200m - 20.72 - (20.7)
600m - 52.26 - (31.5)
1000m - 1:23.94 - (31.6)
1400m - 1:55.93 - (31.9)
1800m - 2:28.07 - (32.1)
2200m - 2:59.82 - (31.7)
2600m - 3:31.61 - (31.7)
3000m - 4:04.29 - (32.6)
6.50 18
13 261 Nana  Takagi JPN JPN 4:04.47200m - 19.80 - (19.8)
600m - 50.58 - (30.7)
1000m - 1:21.53 - (30.9)
1400m - 1:52.73 - (31.2)
1800m - 2:24.43 - (31.7)
2200m - 2:56.59 - (32.1)
2600m - 3:29.61 - (33.0)
3000m - 4:04.47 - (34.8)
6.68 16
14 216 Brittany  Schussler CAN CAN 4:04.50200m - 20.70 - (20.7)
600m - 51.81 - (31.1)
1000m - 1:23.28 - (31.4)
1400m - 1:54.85 - (31.5)
1800m - 2:26.55 - (31.7)
2200m - 2:58.74 - (32.1)
2600m - 3:31.23 - (32.4)
3000m - 4:04.50 - (33.2)
6.71 14
15 271 Bo-Reum  Kim KOR KOR 4:04.62200m - 20.80 - (20.8)
600m - 52.87 - (32.0)
1000m - 1:24.49 - (31.6)
1400m - 1:55.59 - (31.1)
1800m - 2:27.28 - (31.6)
2200m - 2:59.55 - (32.2)
2600m - 3:31.74 - (32.1)
3000m - 4:04.62 - (32.8)
6.83 12
16 300 Katarzyna  Wozniak POL POL 4:09.53200m - 20.66 - (20.6)
600m - 51.36 - (30.7)
1000m - 1:22.01 - (30.6)
1400m - 1:53.26 - (31.2)
1800m - 2:25.26 - (32.0)
2200m - 2:58.21 - (32.9)
2600m - 3:32.89 - (34.6)
3000m - 4:09.53 - (36.6)
11.74 10